Weather in Vtoryye Levyye Lamki

Russia / Tambov Oblast     53°16′37″N   41°03′58″E
temp.,
°C
wind,
m/s
gust,
m/s
humid.,
%
clouds,
%
prec.,
mm/h
press.,
hPa
HPBL,
m
28 february, sun
sun2800:00−11nnw379678 0.0 1013142
03:00−13nnw349549 0.0 101462
06:00−11nw249659 0.1 1015113
09:00−10nw259573 0.1 1015210
12:00−8nw359293 0.1 1015413
15:00−7nw359296 0.1 1016438
18:00−7nnw3593100 0.1 1017176
21:00−7n2595100 0.1 1019182
1 march, mon
mon100:00−8nne1295100 0.1 102121
03:00−7nnw2295100 0.1 102368
06:00−7nw2694100 0.1 1023207
09:00−8n239799 0.1 1025104
12:00−5w249393 0.0 1025286
15:00−3wsw369386 0.0 1024391
18:00−5wsw4109580 0.0 1023214
21:00−3wsw6129489 0.1 1021416
2 march, tue
tue200:00−3wsw71395100 0.2 1018474
03:00−1wsw71495100 0.4 1015586
06:000w81493100 0.1 1011831
09:000w81498100 0.3 1008693
12:00+1wnw71399100 0.2 1007820
15:00+1nw61292100 0.3 1008889
18:00−1wnw6139491 0.1 1008628
21:00−2wnw6139396 0.3 1010533
3 march, wed
wed300:00−4nw6129593 0.1 1009428
03:00−4nw6129391 0.1 1010446
06:00−4nw7139393 0.1 1011588
09:00−4nnw8128994 0.1 1013878
12:00−4nnw81186100 0.1 1015879
15:00−2nw71287100 0.2 10161208
18:00−4nw5138795 0.1 1017469
21:00−6nw5129147 0.1 1019314
4 march, thu
thu400:00−7wnw369526 0.0 1019127
03:00−7w469449 0.0 101995
06:00−8wsw479440 0.0 1018139
09:00−5wsw6119425 0.0 1017342
12:00−1wsw7138775 0.0 1015593
15:000sw7138588 0.0 1013633
18:00−1sw71686100 0.0 1010601
21:00−1sw8178587 0.0 1009585